Regional Weather Roundup
Issued by NWS

Home | Current Version | Previous Version | Text Only | Print | Product List | Glossary On
Versions: 1 2 3 4 5 6 7 8 9 10 11 12 13 14 15 16 17 18 19 20 21 22 23 24 25 26 27 28 29 30 31 32 33 34 35 36 37 38 39 40 41 42 43 44 45 46 47 48 49 50
000
ASUS46 KPQR 021610
RWROR

OREGON REGIONAL WEATHER ROUNDUP
NATIONAL WEATHER SERVICE PORTLAND OR
800 AM PST MON MAR 02 2015

NOTE: "FAIR" INDICATES FEW OR NO CLOUDS BELOW 12,000 FEET WITH
NO SIGNIFICANT WEATHER AND/OR OBSTRUCTIONS TO VISIBILITY.

ORZ001>013-021700-
NORTHWEST OREGON


CITY           SKY/WX    TMP DP  RH WIND       PRES   REMARKS
ASTORIA        MOSUNNY   43  40  89 E9        29.97S
NEWPORT        CLOUDY    43  43 100 CALM      29.98R
PORTLAND       PTSUNNY   42  41  96 W5        29.98R
VANCOUVER WA   CLOUDY    43  40  89 NW5       29.97R
SCAPPOOSE      CLOUDY    43  39  86 VRB3      29.97R
HILLSBORO      CLOUDY    41  40  96 CALM      29.97R
AURORA         CLOUDY    42  40  92 CALM      29.97R
MCMINNVILLE    CLOUDY    44  42  93 N5        29.97R
SALEM          CLOUDY    43  40  89 NE3       29.95R
CORVALLIS      CLOUDY    43  39  87 CALM      29.96R
EUGENE         CLOUDY    41  38  89 CALM      29.95R
$$

ORZ021-028-021700-
SOUTHWEST OREGON


CITY           SKY/WX    TMP DP  RH WIND       PRES   REMARKS
NORTH BEND     CLOUDY    46  46 100 CALM      29.95S
BROOKINGS      MOSUNNY   47  36  65 CALM      29.89R
ROSEBURG       CLOUDY    43  40  89 CALM      29.93R
SEXTON SUMMIT  PTSUNNY   32  30  92 CALM      29.81S
MEDFORD        MOSUNNY   42  33  70 CALM      29.89R
$$

ORZ014>016-041-021700-
COLUMBIA GORGE


CITY           SKY/WX    TMP DP  RH WIND       PRES   REMARKS
TROUTDALE      CLOUDY    42  38  85 SE3       29.96R
THE DALLES     CLOUDY    38  31  76 CALM      29.96R
$$

ORZ029>031-041-044-049-050-061>064-502-503-505>511-021700-
EASTERN OREGON


CITY           SKY/WX    TMP DP  RH WIND       PRES   REMARKS
REDMOND        MOSUNNY   32  24  72 CALM      29.85R
BEND           MOSUNNY   32  19  59 CALM      29.84R
PRINEVILLE     MOSUNNY   32  25  74 CALM      29.85R
KLAMATH FALLS  CLOUDY    30  23  75 CALM      29.78R
LAKEVIEW       PTSUNNY   28  21  74 CALM      29.77R
HERMISTON      PTSUNNY   35  26  69 S6        29.95R WCI  30
PENDLETON      PTSUNNY   32  25  75 W3        29.91R
JOHN DAY       MOSUNNY   28  23  82 CALM      29.83R
MEACHAM        CLOUDY    27  22  81 CALM      29.83R
LA GRANDE      MOSUNNY   34  19  55 N6        29.86R WCI  29
BAKER CITY     SUNNY     28  21  75 S3        29.85S
BURNS          MOSUNNY   28  22  78 W6        29.80R WCI  22
ROME             N/A     30  21  69 CALM      29.79R
ONTARIO        SUNNY     29  23  78 S3        29.89R
$$


USA.gov is the U.S. government's official web portal to all federal, state and local government web resources and services.